Wind_Speed
17 19 17 15 14 14 15 16 16 15 15 14 13 13 12 11 11 11 11 11 10 9 9 9 8 3 1 2 6 5 3 20 24 17 13 11 14 5 4 2 3 4 2 7 16 15 15
17 17 17 15 14 14 16 17 18 18 17 16 15 14 13 13 11 10 9 9 9 9 8 8 4 3 2 3 6 7 13 23 20 11 8 12 7 6 6 2 4 2 6 13 17 16 14
17 18 18 17 16 15 16 17 19 20 18 16 15 14 13 13 12 10 9 6 6 6 7 6 1 3 2 6 4 2 17 14 19 10 6 2 13 5 8 3 2 7 16 13 14 13 7
18 17 17 17 17 16 17 18 20 21 20 18 15 13 12 12 11 9 6 4 4 6 5 3 4 1 5 2 3 7 13 14 13 8 5 4 6 4 2 5 3 3 9 10 10 12 1
19 18 16 17 16 16 16 18 20 22 21 18 14 12 11 10 11 10 6 4 4 4 3 6 2 1 3 2 3 9 6 12 10 4 2 5 2 0 4 7 4 2 7 5 12 12 9
17 18 16 16 16 16 16 17 19 22 23 21 16 13 12 11 11 9 3 2 3 7 5 3 2 3 3 2 3 14 6 16 5 7 6 5 3 4 3 6 7 6 5 7 11 12 7
19 17 15 15 16 16 15 17 18 21 23 23 19 14 12 11 12 8 3 4 2 2 3 5 4 4 5 3 5 5 10 6 8 7 6 5 7 12 9 3 5 10 7 5 3 10 12
22 18 17 15 16 17 16 16 17 19 21 23 23 18 13 12 12 3 2 1 3 2 6 7 8 7 9 2 2 4 15 4 8 14 8 7 14 8 8 4 5 7 8 6 3 14 5
23 22 17 15 16 17 17 16 17 19 20 22 22 21 13 11 8 2 3 4 2 4 3 3 3 3 1 9 5 9 16 8 8 13 13 13 6 9 9 7 7 4 6 7 5 13 12
21 23 20 15 16 17 18 17 17 19 20 22 23 22 12 9 3 3 4 3 10 6 2 6 1 2 4 2 4 6 14 7 5 12 12 8 5 14 9 11 8 8 8 5 12 10 4
18 22 21 16 16 18 19 18 18 19 20 23 25 21 12 5 4 2 2 8 2 4 2 10 2 2 2 3 7 8 9 4 7 7 6 7 12 12 12 9 7 2 5 6 9 5 9
17 21 21 16 16 18 19 19 19 20 21 24 27 20 9 3 4 3 3 5 3 2 4 4 3 4 3 2 4 6 9 2 2 6 3 5 3 8 7 7 11 6 8 8 5 4 4
16 19 20 15 15 17 19 20 21 22 23 25 28 16 6 5 1 2 7 2 2 3 2 5 3 5 3 1 6 9 11 8 4 8 11 5 6 3 3 7 5 7 8 3 6 5 3
16 20 19 15 15 18 20 21 22 24 25 27 25 11 3 6 4 2 1 1 3 2 3 2 2 2 1 2 3 3 10 8 3 3 5 11 9 10 8 9 6 12 13 5 8 6 9
17 20 18 15 15 17 20 22 23 24 25 29 20 4 2 4 4 6 1 3 0 2 3 5 3 1 2 2 2 3 1 11 6 5 2 8 8 2 7 6 11 6 10 5 3 1 7
18 19 18 15 16 18 20 23 25 27 26 25 11 3 3 3 7 2 2 1 1 3 3 2 3 1 0 1 4 3 2 1 4 3 1 4 5 4 6 5 2 6 11 9 3 8 10
19 19 18 16 16 18 21 23 25 27 26 17 3 1 9 4 3 2 1 1 2 3 2 2 2 1 3 1 5 5 1 2 1 2 5 6 3 4 4 4 11 6 6 1 5 3 9
18 18 17 17 16 18 20 22 24 27 29 9 2 2 3 2 1 1 2 2 3 3 4 2 2 3 3 3 3 3 3 2 3 4 5 4 2 1 3 3 1 2 4 4 9 7 0
17 18 17 17 16 17 19 22 23 25 27 5 1 1 2 0 1 1 1 1 3 4 5 5 4 4 1 2 3 3 4 2 5 2 3 6 1 5 6 5 3 4 2 2 3 2 7
16 18 17 17 16 16 17 20 21 24 19 2 1 2 2 3 2 1 2 1 1 3 3 2 3 1 1 4 5 3 4 3 8 3 6 2 3 2 5 5 3 5 5 3 2 5 7
16 16 17 16 15 15 16 19 20 23 14 4 2 2 2 2 2 2 1 1 2 3 4 7 2 6 2 3 3 3 1 5 3 10 4 2 4 11 11 11 11 12 8 5 5 3 5
15 15 16 15 14 15 14 17 19 20 14 2 1 1 2 2 1 1 2 2 2 1 4 3 4 8 4 4 2 2 1 1 2 4 4 6 4 4 2 2 3 10 10 10 8 4 2
15 14 15 14 13 13 12 15 17 18 10 3 3 1 1 1 2 2 1 2 3 1 2 4 1 1 7 5 1 2 3 6 5 1 3 3 5 5 3 4 2 3 5 7 5 3 1
15 14 14 14 13 11 10 12 14 15 15 3 2 1 0 2 1 2 4 2 4 1 2 2 2 1 2 3 5 2 6 8 10 10 4 4 4 1 3 3 7 4 3 2 5 3 1
16 15 14 14 12 10 10 10 11 12 12 3 3 1 1 2 1 3 7 5 5 2 2 2 2 2 2 2 1 2 1 2 6 7 10 4 3 4 3 3 2 6 4 2 2 2 2
16 15 13 14 12 9 9 8 9 8 9 2 2 2 1 2 4 2 3 2 2 2 2 2 2 2 2 3 2 1 2 1 1 1 3 4 7 1 2 3 4 4 1 5 4 4 4
15 16 16 14 12 9 7 5 7 6 7 4 1 1 2 1 2 3 2 3 4 3 2 1 1 2 2 2 2 1 2 1 3 3 0 2 3 1 3 2 1 1 4 3 4 3 1
16 15 16 16 12 8 7 5 6 5 5 2 2 1 1 1 1 4 4 4 3 2 3 3 3 2 2 2 2 2 2 2 2 1 2 3 3 2 2 2 5 4 1 2 3 2 3
15 14 15 15 9 7 7 5 5 5 6 3 2 2 2 2 1 3 4 2 2 4 4 2 1 2 2 3 2 3 2 3 2 3 2 3 2 1 4 1 1 2 2 1 1 3 3
Wind_Direction
12 15 13 10 16 17 12 3 1 355 343 336 331 329 329 326 323 318 313 310 306 303 305 312 319 350 43 257 258 319 330 155 153 153 151 154 154 142 148 247 297 233 11 147 147 144 134
14 13 11 11 14 12 7 359 356 353 344 339 332 330 327 326 323 318 312 305 298 299 301 309 326 106 264 240 315 329 159 155 162 143 143 158 162 123 128 209 271 287 148 133 149 137 139
8 12 12 11 11 7 5 360 360 358 353 342 337 334 332 330 325 317 310 303 299 298 304 303 80 112 239 251 351 42 145 158 160 163 157 193 153 153 151 156 236 134 125 127 152 139 135
3 7 9 8 6 5 4 2 2 360 360 349 342 339 336 337 330 331 331 331 321 306 301 281 109 154 250 242 24 150 140 135 159 123 172 167 141 144 211 106 161 153 143 149 170 141 157
359 1 4 7 5 3 3 3 1 -0 0 1 354 344 345 350 3 3 358 24 45 21 123 115 108 267 269 275 218 162 168 139 154 165 125 162 252 262 173 162 140 52 157 177 172 192 139
359 359 1 4 3 360 359 1 0 360 1 1 357 349 344 346 352 356 34 86 69 73 100 133 263 249 244 34 150 143 166 141 131 142 131 143 172 206 168 192 186 168 178 180 169 187 144
4 358 357 1 1 357 356 359 359 360 0 2 358 351 347 348 354 352 126 117 225 168 197 252 286 286 301 333 146 165 160 135 123 155 158 167 193 200 181 186 132 145 164 162 226 171 181
4 358 354 357 358 356 355 353 355 357 358 1 359 350 345 347 351 349 103 219 124 340 301 234 250 259 266 284 134 128 156 172 167 156 147 160 208 193 165 167 134 143 162 170 148 154 99
357 358 353 352 354 355 353 350 350 352 355 356 352 345 333 335 351 112 290 219 241 288 269 303 198 225 281 172 190 169 173 142 181 157 174 192 192 162 176 175 178 168 183 160 146 104 68
353 352 353 350 352 354 353 351 348 348 349 349 348 342 323 331 58 308 249 211 295 206 356 19 60 135 143 241 146 157 180 150 170 185 161 190 153 169 177 179 198 195 198 145 140 162 146
349 350 352 352 352 354 352 352 346 343 343 343 345 339 323 301 290 229 201 317 121 181 81 336 48 59 112 215 136 183 179 175 170 174 218 152 159 171 183 177 187 223 164 170 157 123 136
350 349 351 353 351 352 351 349 345 340 341 340 341 332 323 272 237 227 281 321 169 247 60 0 352 1 184 180 146 125 177 130 95 156 204 142 150 179 185 170 181 155 101 97 112 149 217
353 349 349 349 349 349 351 347 345 341 342 338 337 326 279 211 188 216 316 181 278 43 316 12 336 355 331 137 130 156 175 181 201 172 189 179 169 161 159 149 180 189 170 144 180 181 198
353 347 348 348 348 351 351 346 344 344 342 337 335 324 292 251 261 318 209 183 54 348 309 336 333 331 146 343 100 126 159 184 142 140 168 199 208 204 171 210 176 196 201 191 198 187 204
352 345 349 350 351 353 350 345 343 345 344 338 334 336 335 348 296 189 141 58 121 222 305 319 309 19 102 147 172 122 233 201 204 204 200 183 225 186 202 168 180 167 207 213 109 74 203
345 348 349 352 352 351 350 347 344 344 346 339 336 324 35 1 124 150 62 111 253 235 291 251 13 4 226 144 156 127 340 121 163 190 210 172 207 186 156 153 129 204 167 188 210 186 212
345 346 349 350 350 349 351 349 346 344 345 341 356 172 350 138 2 54 73 174 265 210 246 298 24 334 8 59 111 118 263 86 347 76 172 164 260 128 175 209 179 163 188 137 182 263 217
339 343 346 348 346 350 352 349 348 346 346 352 348 145 54 57 77 31 127 193 344 346 16 5 130 70 58 353 103 140 122 287 326 174 179 168 211 104 114 23 137 113 148 194 208 184 91
336 341 341 344 344 349 350 349 349 347 344 322 61 88 357 230 143 108 223 115 33 32 16 5 21 41 99 359 86 27 360 360 3 130 177 174 135 136 145 154 127 76 52 110 116 156 189
334 337 338 341 343 345 349 349 350 349 350 55 186 135 82 66 17 140 154 95 127 56 76 352 359 103 104 54 29 61 336 319 349 29 72 163 82 244 174 100 114 95 81 128 221 205 161
332 331 333 336 339 340 349 349 352 353 356 354 14 86 16 120 68 106 80 98 86 16 20 23 105 33 43 112 102 137 211 300 6 353 51 30 75 103 107 103 84 77 89 97 132 118 222
331 329 329 332 336 338 349 350 354 359 355 1 11 149 90 80 33 131 4 58 86 83 354 31 65 47 86 92 42 122 222 356 49 344 36 356 112 24 81 49 54 85 81 88 90 96 130
330 325 324 325 330 337 346 352 354 0 7 15 20 29 288 48 108 167 119 135 100 140 89 58 85 63 69 62 35 25 71 76 59 29 90 40 134 149 267 343 240 216 41 82 105 95 101
323 322 319 318 321 333 340 352 355 359 14 34 15 295 74 123 197 136 150 118 136 92 103 48 54 66 44 108 129 119 93 82 60 49 53 125 106 124 165 232 224 66 346 34 82 86 75
319 313 314 313 312 324 333 346 352 354 2 18 5 323 89 125 130 138 135 118 113 75 79 86 72 43 146 87 100 105 25 100 30 47 38 32 120 102 182 199 329 127 57 360 326 48 81
319 306 303 304 304 316 326 335 344 348 350 10 41 38 103 152 208 132 135 155 158 130 115 110 74 39 65 67 70 113 150 81 125 87 58 56 64 75 162 198 205 72 81 342 250 253 172
312 309 303 296 299 306 309 319 332 334 340 344 175 22 154 201 169 186 156 169 128 116 110 285 120 148 348 92 88 124 129 322 173 190 332 13 28 195 155 202 271 317 314 311 226 57 296
298 295 299 284 282 290 297 296 313 312 321 330 168 67 212 162 219 201 175 143 136 184 181 136 178 148 107 103 155 160 171 155 169 182 221 206 169 150 139 171 230 0 275 282 24 2 322
285 282 285 291 265 268 273 270 295 296 310 313 194 248 291 218 347 222 236 226 222 190 140 156 27 148 141 112 147 141 150 169 181 199 190 209 228 154 207 210 49 306 39 28 31 14 356
Height
831 829 827 824 822 820 818 816 813 811 808 806 804 802 799 797 795 794 794 794 793 791 789 789 788 788 789 788 777 772 772 774 778 782 784 785 788 794 801 803 798 798 790 785 786 790 798
832 830 827 825 823 821 819 816 813 810 808 805 803 801 799 797 794 792 790 789 789 788 788 787 787 787 790 787 775 772 771 775 778 782 785 785 786 788 797 801 801 790 787 789 790 796 799
832 830 828 825 823 821 818 815 813 810 807 803 801 799 797 795 793 790 788 786 785 785 786 786 787 788 789 775 774 774 774 777 780 782 785 786 786 787 792 799 794 788 796 794 795 798 806
833 830 828 825 823 820 817 815 812 808 805 802 800 797 794 792 790 788 786 784 784 784 785 786 787 789 780 774 773 776 777 780 783 785 786 787 788 787 788 791 795 798 795 809 801 800 811
833 830 827 825 822 820 817 814 811 807 804 800 797 795 793 791 789 788 786 786 785 784 783 786 789 789 777 773 773 774 779 779 784 786 787 787 789 789 789 796 804 808 810 810 810 801 812
832 829 827 824 822 819 817 814 811 807 803 800 796 794 792 790 789 787 786 786 786 786 787 788 789 789 773 772 772 772 779 780 782 786 788 789 792 794 794 795 810 814 810 803 807 805 807
831 828 825 823 821 818 815 813 810 807 803 799 796 793 790 789 788 786 786 787 790 788 787 776 775 775 771 771 773 775 778 781 781 786 793 792 796 799 793 791 791 794 800 810 800 797 807
830 827 824 822 819 817 814 811 809 806 802 799 795 792 789 787 787 785 786 785 784 786 781 774 775 775 772 772 773 775 776 782 783 790 792 798 798 790 790 793 792 794 800 804 803 799 810
830 826 823 820 818 816 813 810 807 804 801 798 794 790 787 785 784 785 785 784 782 782 782 771 770 769 768 771 770 772 773 777 786 788 789 793 788 789 793 798 799 798 799 802 799 817 821
829 825 822 819 817 814 812 809 806 803 799 796 792 788 785 784 787 785 783 781 780 780 783 775 768 765 767 767 770 767 770 773 783 789 785 787 785 789 793 797 795 802 791 792 803 806 830
827 824 820 817 815 813 810 807 803 800 796 793 789 786 783 783 783 783 781 779 778 780 802 773 768 762 764 768 766 770 767 770 781 785 785 788 788 792 795 792 793 796 791 792 800 812 815
825 823 819 816 814 811 808 804 801 797 794 790 787 782 781 780 780 780 779 778 779 788 803 780 769 771 770 765 766 767 770 768 771 780 781 783 778 781 783 785 788 788 796 801 805 805 825
824 822 818 814 812 809 806 803 799 795 791 787 783 779 777 777 778 778 778 778 787 798 786 785 780 776 776 771 768 768 775 778 783 795 795 788 786 779 778 790 792 791 801 828 825 828 824
823 820 816 813 810 808 804 801 797 793 788 783 778 775 774 775 775 776 777 780 799 792 788 778 780 780 778 775 770 773 776 782 781 780 791 797 807 784 777 782 791 795 790 811 830 829 816
823 819 815 812 809 806 803 799 795 791 786 780 775 774 773 773 773 775 776 793 795 791 783 783 779 782 781 776 774 775 782 776 773 775 790 795 797 777 774 773 777 797 801 780 803 815 806
822 818 814 811 808 806 802 798 794 789 784 778 774 774 774 773 773 775 778 796 791 787 782 782 788 787 786 781 777 778 786 779 778 774 774 784 795 778 774 773 779 778 776 799 802 823 822
821 817 813 810 808 805 801 797 793 787 782 777 775 772 774 773 775 774 785 789 786 780 781 782 783 784 785 783 780 784 789 780 776 779 775 779 785 786 781 781 777 787 787 791 784 796 802
820 817 813 810 807 805 801 796 792 786 780 776 776 775 775 775 778 795 786 788 786 779 778 779 779 781 786 787 784 784 784 781 775 773 780 779 779 790 791 782 778 777 783 779 785 809 804
819 816 812 809 806 804 800 796 791 787 781 778 776 776 776 776 783 786 787 783 783 781 785 782 782 782 787 790 791 792 789 777 774 774 780 780 790 795 794 787 780 786 789 791 786 783 796
817 814 811 808 805 803 800 796 791 786 781 779 778 777 777 780 788 782 785 787 786 783 786 786 785 783 784 792 794 793 793 783 779 777 779 778 790 785 788 791 789 796 792 790 781 784 791
815 812 810 807 804 802 799 795 791 786 782 782 779 781 784 781 783 786 786 788 789 790 785 785 785 790 788 792 797 798 797 790 782 781 779 776 796 789 789 789 787 789 790 787 787 792 788
812 810 808 805 803 801 799 795 791 787 782 782 778 778 785 788 790 786 792 791 790 791 791 789 792 791 788 794 796 795 794 791 793 786 784 781 801 801 800 795 791 791 789 790 792 796 796
810 809 807 804 802 800 798 795 791 788 785 784 785 784 781 795 790 786 789 789 790 790 792 791 792 792 791 795 792 792 793 795 796 791 791 794 798 811 809 803 794 800 795 791 794 794 795
808 806 805 802 801 798 796 794 792 790 787 786 786 785 781 786 788 786 786 785 789 790 792 792 790 791 794 793 794 792 792 790 790 798 794 798 804 809 804 803 815 803 793 790 793 795 795
805 804 802 800 799 796 795 793 792 790 788 786 785 786 783 786 788 787 785 788 790 792 792 793 791 792 793 793 794 798 797 793 796 801 799 797 798 814 811 811 808 801 802 802 798 798 798
802 801 799 798 797 795 794 792 791 789 787 785 785 784 784 783 783 782 785 787 788 791 793 792 792 794 793 796 801 810 811 811 806 800 798 798 799 797 813 811 817 805 801 799 797 804 797
799 798 796 795 794 793 792 791 791 789 786 785 783 783 782 781 780 781 782 784 789 792 791 796 793 792 795 798 806 813 814 816 813 808 808 805 807 809 811 809 807 802 801 800 810 811 800
795 794 793 791 790 790 790 789 789 788 786 784 783 783 782 780 779 779 779 783 788 789 787 794 795 794 796 801 806 818 814 816 817 815 812 809 812 817 818 817 822 805 801 805 807 803 803
790 789 789 787 787 787 786 787 787 787 786 785 782 781 781 781 778 777 777 777 778 779 784 795 791 793 793 799 810 815 815 818 816 815 816 817 809 811 811 809 809 808 807 806 806 805 803